Location: Home
(42.5358°N, 72.7383°W)
Time: 01:32:25
(UTC-04:00)

DOVE 4 - Visible Passes

Search period start: 10 August 2022 00:00
Search period end: 20 August 2022 00:00
Orbit: 588 x 796 km, 97.8° (Epoch: 09 August)

Date Brightness Start Highest point End Pass type
(mag) Time Alt. Az. Time Alt. Az. Time Alt. Az.
10 Aug ? 00:46:40 10° N 00:50:07 41° NNW 00:50:07 41° NNW visible
10 Aug ? 23:48:55 10° NNE 23:51:23 26° NE 23:51:23 26° NE visible
11 Aug ? 01:26:54 10° NNW 01:30:03 23° NW 01:30:03 23° NW visible
12 Aug ? 00:28:16 10° NNE 00:31:19 38° N 00:31:19 38° N visible
12 Aug ? 02:08:53 10° NW 02:09:49 11° WNW 02:09:59 11° WNW visible
12 Aug ? 23:30:59 10° NE 23:32:35 17° NE 23:32:35 17° NE visible
13 Aug ? 01:08:13 10° N 01:11:15 29° NW 01:11:15 29° NW visible
14 Aug ? 00:09:59 10° NNE 00:12:31 30° NNE 00:12:31 30° NNE visible
14 Aug ? 01:49:01 10° NNW 01:51:10 15° NW 01:51:10 15° NW visible
14 Aug ? 23:13:22 10° NE 23:13:46 11° NE 23:13:46 11° NE visible
15 Aug ? 00:49:40 10° N 00:52:26 31° NNW 00:52:26 31° NNW visible
15 Aug ? 23:51:50 10° NNE 23:53:42 22° NE 23:53:42 22° NE visible
16 Aug ? 01:30:01 10° NNW 01:32:21 19° NW 01:32:21 19° NW visible
17 Aug ? 00:31:14 10° N 00:33:36 29° N 00:33:36 29° N visible
17 Aug ? 23:33:51 10° NE 23:34:51 15° NE 23:34:51 15° NE visible
18 Aug ? 01:11:15 10° N 01:13:31 23° NNW 01:13:31 23° NNW visible
19 Aug ? 00:12:54 10° NNE 00:14:46 23° NNE 00:14:46 23° NNE visible
19 Aug ? 01:52:17 10° NNW 01:53:26 12° NW 01:53:26 12° NW visible
